STARLINK-3087 (49175 NORAD) Tracking and Keplerian Element Data

This shows tracking and keplerian element data for the satellite.

Feedback or suggestion? Click here.




ElementValue
Catalog49175
NameSTARLINK-3087
Epoch Orbit367
Epoch Day300.58334491
Epoch Year2021
RAAN4.6384
Inclination70.001
Eccentricity0.0003736
Argument of Perigee293.7108
Mean Anonmoly136.645
Mean Motion15.69755911
Decay Rate-0.00035235
L11 49175U 21082AX 21300.58334491 -.00035235 00000-0 -29451-3 0 9996
L22 49175 70.0010 4.6384 0003736 293.7108 136.6450 15.69755911 3670

Live tracking and technical data element details for STARLINK-3087 (NORAD 49175). STARLINK-3087 can be tracked NOW for your location showing map with azimuth and elevation plus other details from your city location.

Track the satellite on the map from your city or location and see movement details for azimuth, elevation, latitude, longitude, range, height, and movement on the map or in text.







IsCatalogInMostPopularTable: catalog: 49175, numindb: 11
Update: records affected: 1



GetName: 49175 STARLINK-3087

Hit Count: updated at: Thu, 28 Oct 2021 11:09:45 GMT